Location: Pianadetto
(44.4000°N, 10.1000°E)
Time: 21:32:51
(UTC+00:00)

IRS-1D - Pass Details

Date: 26 May 2022
Orbit: 740 x 816 km, 98.7° (Epoch: 04 July)

Event Time Altitude Azimuth Distance (km) Brightness Sun altitude
Rises 01:55:41 0° 15° (NNE) 3,353 8.1 -15.1°
Reaches altitude 10° 01:58:03 10° 18° (NNE) 2,413 7.2 -14.8°
Maximum altitude 02:03:24 73° 103° (ESE) 846 3.8 -14.2°
Enters shadow 02:07:57 14° 187° (S) 2,097 5.3 -13.7°
